Time,TemperatureF,DewpointF,PressureIn,WindDirection,WindDirectionDegrees,WindSpeedMPH,WindSpeedGustMPH,Humidity,HourlyPrecipIn,Conditions,Clouds,dailyrainin,SoftwareType,DateUTC
2013-03-05 00:02:00,38.0,25.0,30.07,ENE,66,0.0,0.0,59,0.00,,,0.00,,2013-03-05 05:02:00,
2013-03-05 00:12:00,38.0,25.0,30.07,ENE,66,0.0,0.0,59,0.00,,,0.00,,2013-03-05 05:12:00,
2013-03-05 00:22:00,38.0,25.0,30.06,NE,40,0.0,0.0,58,0.00,,,0.00,,2013-03-05 05:22:00,
2013-03-05 00:32:00,38.0,25.0,30.06,NE,38,1.0,0.0,59,0.00,,,0.00,,2013-03-05 05:32:00,
2013-03-05 00:42:00,38.0,25.0,30.06,NE,38,1.0,0.0,59,0.00,,,0.00,,2013-03-05 05:42:00,
2013-03-05 00:52:00,38.0,26.0,30.05,ENE,69,1.0,3.0,61,0.00,,,0.00,,2013-03-05 05:52:00,
2013-03-05 01:01:00,38.0,26.0,30.05,NE,51,1.0,5.0,61,0.00,,,0.00,,2013-03-05 06:01:00,
2013-03-05 01:11:00,38.0,26.0,30.05,NE,51,1.0,5.0,61,0.00,,,0.00,,2013-03-05 06:11:00,
2013-03-05 01:22:00,38.0,26.0,30.04,NE,51,2.0,8.0,61,0.00,,,0.00,,2013-03-05 06:22:00,
2013-03-05 01:32:00,38.0,25.0,30.04,NNE,27,5.0,6.0,60,0.00,,,0.00,,2013-03-05 06:32:00,
2013-03-05 01:42:00,38.0,25.0,30.04,NNE,27,5.0,6.0,60,0.00,,,0.00,,2013-03-05 06:42:00,
2013-03-05 01:52:00,38.0,25.0,30.04,NNE,32,3.0,8.0,59,0.00,,,0.00,,2013-03-05 06:52:00,
2013-03-05 02:01:00,38.0,25.0,30.04,NE,44,3.0,9.0,59,0.00,,,0.00,,2013-03-05 07:01:00,
2013-03-05 02:11:00,38.0,25.0,30.04,NE,44,3.0,9.0,59,0.00,,,0.00,,2013-03-05 07:11:00,
2013-03-05 02:22:00,38.0,25.0,30.04,ENE,64,5.0,8.0,59,0.00,,,0.00,,2013-03-05 07:22:00,
2013-03-05 02:31:00,38.0,25.0,30.03,NE,56,6.0,12.0,59,0.00,,,0.00,,2013-03-05 07:31:00,
2013-03-05 02:41:00,38.0,25.0,30.03,NE,56,6.0,12.0,59,0.00,,,0.00,,2013-03-05 07:41:00,
2013-03-05 02:51:00,38.0,25.0,30.03,ENE,65,2.0,7.0,59,0.00,,,0.00,,2013-03-05 07:51:00,
2013-03-05 03:02:00,38.0,25.0,30.03,NE,38,2.0,9.0,59,0.00,,,0.00,,2013-03-05 08:02:00,
2013-03-05 03:11:00,38.0,25.0,30.03,NE,38,2.0,9.0,59,0.00,,,0.00,,2013-03-05 08:11:00,
2013-03-05 03:21:00,38.0,25.0,30.02,NE,40,1.0,6.0,59,0.00,,,0.00,,2013-03-05 08:21:00,
2013-03-05 03:31:00,38.0,25.0,30.01,NE,35,3.0,8.0,59,0.00,,,0.00,,2013-03-05 08:31:00,
2013-03-05 03:41:00,38.0,25.0,30.01,NE,35,3.0,8.0,59,0.00,,,0.00,,2013-03-05 08:41:00,
2013-03-05 03:52:00,38.0,26.0,30.01,NE,40,1.0,7.0,61,0.00,,,0.00,,2013-03-05 08:52:00,
2013-03-05 04:01:00,38.0,26.0,29.99,NE,42,6.0,9.0,61,0.00,,,0.00,,2013-03-05 09:01:00,
2013-03-05 04:11:00,37.0,25.0,29.99,NE,45,5.0,7.0,62,0.00,,,0.00,,2013-03-05 09:11:00,
2013-03-05 04:21:00,37.0,25.0,29.99,NE,45,5.0,7.0,62,0.00,,,0.00,,2013-03-05 09:21:00,
2013-03-05 04:31:00,37.0,25.0,29.98,ENE,65,5.0,9.0,62,0.00,,,0.00,,2013-03-05 09:31:00,
2013-03-05 04:42:00,37.0,25.0,29.98,ENE,65,5.0,9.0,62,0.00,,,0.00,,2013-03-05 09:42:00,
2013-03-05 04:52:00,37.0,26.0,29.98,NE,40,3.0,6.0,63,0.00,,,0.00,,2013-03-05 09:52:00,
2013-03-05 05:01:00,37.0,26.0,29.98,NNE,13,1.0,3.0,65,0.00,,,0.00,,2013-03-05 10:01:00,
2013-03-05 05:11:00,37.0,26.0,29.98,NNE,13,1.0,3.0,65,0.00,,,0.00,,2013-03-05 10:11:00,
2013-03-05 05:21:00,37.0,27.0,29.98,NE,55,2.0,8.0,66,0.00,,,0.00,,2013-03-05 10:21:00,
2013-03-05 05:32:00,37.0,27.0,29.99,East,88,3.0,9.0,67,0.00,,,0.00,,2013-03-05 10:32:00,
2013-03-05 05:42:00,37.0,27.0,29.99,East,88,3.0,9.0,67,0.00,,,0.00,,2013-03-05 10:42:00,
2013-03-05 05:52:00,37.0,28.0,29.98,ENE,69,3.0,6.0,69,0.00,,,0.00,,2013-03-05 10:52:00,
2013-03-05 06:01:00,37.0,28.0,29.98,East,97,1.0,5.0,69,0.00,,,0.00,,2013-03-05 11:01:00,
2013-03-05 06:11:00,37.0,28.0,29.97,NNE,32,2.0,6.0,69,0.00,,,0.00,,2013-03-05 11:11:00,
2013-03-05 06:22:00,37.0,28.0,29.97,NNE,32,2.0,6.0,69,0.00,,,0.00,,2013-03-05 11:22:00,
2013-03-05 06:32:00,37.0,28.0,29.97,East,79,3.0,7.0,70,0.00,,,0.00,,2013-03-05 11:32:00,
2013-03-05 06:42:00,37.0,28.0,29.97,East,79,3.0,7.0,70,0.00,,,0.00,,2013-03-05 11:42:00,
2013-03-05 06:52:00,37.0,28.0,29.96,East,91,5.0,8.0,70,0.00,,,0.00,,2013-03-05 11:52:00,
2013-03-05 07:02:00,37.0,28.0,29.95,ENE,63,5.0,6.0,71,0.00,,,0.00,,2013-03-05 12:02:00,
2013-03-05 07:12:00,37.0,28.0,29.95,ENE,63,5.0,6.0,71,0.00,,,0.00,,2013-03-05 12:12:00,
2013-03-05 07:22:00,37.0,29.0,29.96,East,85,2.0,7.0,72,0.00,,,0.00,,2013-03-05 12:22:00,
2013-03-05 07:32:00,37.0,29.0,29.96,East,90,2.0,6.0,72,0.00,,,0.00,,2013-03-05 12:32:00,
2013-03-05 07:42:00,37.0,29.0,29.96,East,90,2.0,6.0,72,0.00,,,0.00,,2013-03-05 12:42:00,
2013-03-05 07:53:00,37.0,29.0,29.96,ESE,106,0.0,6.0,72,0.00,,,0.00,,2013-03-05 12:53:00,
2013-03-05 08:02:00,37.0,29.0,29.95,East,87,1.0,6.0,72,0.00,,,0.00,,2013-03-05 13:02:00,
2013-03-05 08:11:00,37.0,29.0,29.95,East,87,1.0,6.0,72,0.00,,,0.00,,2013-03-05 13:11:00,
2013-03-05 08:22:00,37.0,29.0,29.95,ENE,65,2.0,7.0,73,0.00,,,0.00,,2013-03-05 13:22:00,
2013-03-05 08:32:00,37.0,29.0,29.94,East,83,1.0,6.0,73,0.00,,,0.00,,2013-03-05 13:32:00,
2013-03-05 08:42:00,37.0,29.0,29.94,East,83,1.0,6.0,73,0.00,,,0.00,,2013-03-05 13:42:00,
2013-03-05 08:52:00,38.0,30.0,29.95,East,83,2.0,5.0,73,0.00,,,0.00,,2013-03-05 13:52:00,
2013-03-05 09:02:00,38.0,30.0,29.95,East,83,2.0,5.0,73,0.00,,,0.00,,2013-03-05 14:02:00,
2013-03-05 09:11:00,38.0,30.0,29.95,East,83,2.0,5.0,73,0.00,,,0.00,,2013-03-05 14:11:00,
2013-03-05 09:22:00,38.0,30.0,29.93,ENE,71,1.0,6.0,73,0.00,,,0.00,,2013-03-05 14:22:00,
2013-03-05 09:32:00,38.0,30.0,29.93,NE,37,0.0,0.0,73,0.00,,,0.00,,2013-03-05 14:32:00,
2013-03-05 09:42:00,38.0,30.0,29.93,NE,37,0.0,0.0,73,0.00,,,0.00,,2013-03-05 14:42:00,
2013-03-05 09:52:00,38.0,31.0,29.91,NE,44,2.0,8.0,75,0.00,,,0.00,,2013-03-05 14:52:00,
2013-03-05 10:02:00,38.0,31.0,29.91,NE,54,3.0,7.0,75,0.00,,,0.00,,2013-03-05 15:02:00,
2013-03-05 10:11:00,38.0,31.0,29.91,NE,54,3.0,7.0,75,0.00,,,0.00,,2013-03-05 15:11:00,
2013-03-05 10:21:00,38.0,31.0,29.92,NE,42,1.0,6.0,75,0.00,,,0.00,,2013-03-05 15:21:00,
2013-03-05 10:32:00,38.0,31.0,29.91,ENE,78,1.0,8.0,75,0.00,,,0.00,,2013-03-05 15:32:00,
2013-03-05 10:42:00,38.0,31.0,29.91,ENE,78,1.0,8.0,75,0.00,,,0.00,,2013-03-05 15:42:00,
2013-03-05 10:52:00,38.0,31.0,29.90,East,100,2.0,6.0,76,0.00,,,0.00,,2013-03-05 15:52:00,
2013-03-05 11:01:00,37.0,31.0,29.89,ENE,77,3.0,7.0,78,0.00,,,0.00,,2013-03-05 16:01:00,
2013-03-05 11:11:00,37.0,31.0,29.89,ENE,77,3.0,7.0,78,0.00,,,0.00,,2013-03-05 16:11:00,
2013-03-05 11:21:00,37.0,31.0,29.88,NE,56,5.0,8.0,79,0.00,,,0.00,,2013-03-05 16:21:00,
2013-03-05 11:32:00,37.0,31.0,29.87,ENE,70,8.0,9.0,79,0.00,,,0.00,,2013-03-05 16:32:00,
2013-03-05 11:42:00,37.0,31.0,29.87,ENE,70,8.0,9.0,79,0.00,,,0.00,,2013-03-05 16:42:00,
2013-03-05 11:52:00,37.0,32.0,29.87,ENE,57,6.0,10.0,81,0.00,,,0.00,,2013-03-05 16:52:00,
2013-03-05 12:01:00,38.0,33.0,29.85,NE,46,3.0,10.0,82,0.00,,,0.00,,2013-03-05 17:01:00,
2013-03-05 12:11:00,38.0,33.0,29.85,NE,46,3.0,10.0,82,0.00,,,0.00,,2013-03-05 17:11:00,
2013-03-05 12:21:00,37.0,33.0,29.84,NE,51,5.0,6.0,85,0.00,,,0.00,,2013-03-05 17:21:00,
2013-03-05 12:32:00,37.0,34.0,29.83,ENE,57,7.0,8.0,87,0.00,,,0.00,,2013-03-05 17:32:00,
2013-03-05 12:42:00,37.0,34.0,29.83,ENE,57,7.0,8.0,87,0.00,,,0.00,,2013-03-05 17:42:00,
2013-03-05 12:53:00,38.0,35.0,29.83,ENE,59,2.0,8.0,90,0.00,,,0.00,,2013-03-05 17:53:00,
2013-03-05 13:02:00,38.0,35.0,29.82,NE,48,6.0,8.0,90,0.00,,,0.00,,2013-03-05 18:02:00,
2013-03-05 13:11:00,38.0,35.0,29.82,NE,48,6.0,8.0,90,0.00,,,0.00,,2013-03-05 18:11:00,
2013-03-05 13:22:00,38.0,36.0,29.80,NE,53,6.0,7.0,92,0.00,,,0.00,,2013-03-05 18:22:00,
2013-03-05 13:32:00,37.0,35.0,29.79,NNE,24,3.0,7.0,93,0.00,,,0.00,,2013-03-05 18:32:00,
2013-03-05 13:42:00,37.0,35.0,29.79,NNE,24,3.0,7.0,93,0.00,,,0.00,,2013-03-05 18:42:00,
2013-03-05 13:53:00,38.0,36.0,29.78,ENE,70,3.0,7.0,93,0.00,,,0.00,,2013-03-05 18:53:00,
2013-03-05 14:01:00,39.0,38.0,29.77,ESE,115,3.0,7.0,95,0.00,,,0.00,,2013-03-05 19:01:00,
2013-03-05 14:11:00,39.0,38.0,29.77,ESE,115,3.0,7.0,95,0.00,,,0.00,,2013-03-05 19:11:00,
2013-03-05 14:21:00,39.0,37.0,29.76,East,85,6.0,7.0,93,0.00,,,0.00,,2013-03-05 19:21:00,
2013-03-05 14:32:00,39.0,38.0,29.75,East,93,5.0,7.0,95,0.00,,,0.00,,2013-03-05 19:32:00,
2013-03-05 14:42:00,39.0,38.0,29.75,East,93,5.0,7.0,95,0.00,,,0.00,,2013-03-05 19:42:00,
2013-03-05 14:52:00,39.0,38.0,29.75,NNE,32,5.0,8.0,95,0.00,,,0.00,,2013-03-05 19:52:00,
2013-03-05 15:01:00,38.0,37.0,29.73,ENE,76,2.0,6.0,95,0.00,,,0.00,,2013-03-05 20:01:00,
2013-03-05 15:11:00,38.0,37.0,29.72,NE,44,0.0,0.0,95,0.00,,,0.00,,2013-03-05 20:11:00,
2013-03-05 15:22:00,38.0,37.0,29.72,NE,44,0.0,0.0,95,0.00,,,0.00,,2013-03-05 20:22:00,
2013-03-05 15:32:00,38.0,37.0,29.71,East,90,3.0,6.0,95,0.00,,,0.00,,2013-03-05 20:32:00,
2013-03-05 15:42:00,38.0,37.0,29.71,East,90,3.0,6.0,95,0.00,,,0.00,,2013-03-05 20:42:00,
2013-03-05 15:52:00,38.0,37.0,29.70,East,88,2.0,6.0,95,0.00,,,0.00,,2013-03-05 20:52:00,
2013-03-05 16:02:00,38.0,37.0,29.69,ENE,65,5.0,5.0,95,0.01,,,0.01,,2013-03-05 21:02:00,
2013-03-05 16:11:00,38.0,37.0,29.69,ENE,65,5.0,5.0,95,0.01,,,0.01,,2013-03-05 21:11:00,
2013-03-05 16:22:00,38.0,37.0,29.68,East,81,1.0,8.0,95,0.02,,,0.02,,2013-03-05 21:22:00,
2013-03-05 16:32:00,38.0,37.0,29.67,ENE,64,2.0,7.0,95,0.03,,,0.03,,2013-03-05 21:32:00,
2013-03-05 16:42:00,38.0,37.0,29.67,ENE,64,2.0,7.0,95,0.03,,,0.03,,2013-03-05 21:42:00,
2013-03-05 16:52:00,38.0,37.0,29.66,NE,37,2.0,5.0,95,0.06,,,0.06,,2013-03-05 21:52:00,
2013-03-05 17:01:00,38.0,37.0,29.67,North,357,0.0,2.0,95,0.07,,,0.08,,2013-03-05 22:01:00,
2013-03-05 17:11:00,38.0,37.0,29.67,North,357,0.0,2.0,95,0.07,,,0.08,,2013-03-05 22:11:00,
2013-03-05 17:22:00,38.0,37.0,29.66,NNE,13,0.0,0.0,95,0.09,,,0.11,,2013-03-05 22:22:00,
2013-03-05 17:32:00,38.0,37.0,29.66,NNE,23,0.0,0.0,95,0.09,,,0.12,,2013-03-05 22:32:00,
2013-03-05 17:42:00,38.0,37.0,29.66,NNE,23,0.0,0.0,95,0.09,,,0.12,,2013-03-05 22:42:00,
2013-03-05 17:52:00,38.0,37.0,29.67,NW,326,0.0,0.0,95,0.08,,,0.14,,2013-03-05 22:52:00,
2013-03-05 18:01:00,38.0,37.0,29.67,NNW,339,0.0,0.0,95,0.08,,,0.16,,2013-03-05 23:01:00,
2013-03-05 18:11:00,38.0,37.0,29.67,NNW,339,0.0,0.0,95,0.08,,,0.16,,2013-03-05 23:11:00,
2013-03-05 18:21:00,38.0,37.0,29.67,North,350,0.0,0.0,95,0.08,,,0.19,,2013-03-05 23:21:00,
2013-03-05 18:32:00,38.0,37.0,29.67,North,350,0.0,0.0,95,0.08,,,0.20,,2013-03-05 23:32:00,
2013-03-05 18:42:00,38.0,37.0,29.67,North,350,0.0,0.0,95,0.08,,,0.20,,2013-03-05 23:42:00,
2013-03-05 18:53:00,38.0,37.0,29.68,NW,317,2.0,3.0,95,0.07,,,0.21,,2013-03-05 23:53:00,
2013-03-05 19:01:00,38.0,37.0,29.69,West,280,5.0,6.0,95,0.07,,,0.23,,2013-03-06 00:01:00,
2013-03-05 19:11:00,38.0,37.0,29.69,West,280,5.0,6.0,95,0.07,,,0.23,,2013-03-06 00:11:00,
2013-03-05 19:21:00,37.0,36.0,29.70,West,269,3.0,5.0,95,0.08,,,0.27,,2013-03-06 00:21:00,
2013-03-05 19:32:00,35.0,34.0,29.70,WNW,291,0.0,0.0,95,0.07,,,0.27,,2013-03-06 00:32:00,
2013-03-05 19:42:00,35.0,34.0,29.70,WNW,291,0.0,0.0,95,0.07,,,0.27,,2013-03-06 00:42:00,
2013-03-05 19:52:00,34.0,33.0,29.71,WNW,291,0.0,0.0,95,0.06,,,0.27,,2013-03-06 00:52:00,
2013-03-05 20:02:00,33.0,32.0,29.71,WNW,291,0.0,0.0,95,0.04,,,0.27,,2013-03-06 01:02:00,
2013-03-05 20:11:00,33.0,32.0,29.71,WNW,291,0.0,0.0,95,0.04,,,0.27,,2013-03-06 01:11:00,
2013-03-05 20:21:00,34.0,33.0,29.70,WNW,291,0.0,0.0,95,0.00,,,0.27,,2013-03-06 01:21:00,
2013-03-05 20:32:00,33.0,32.0,29.70,WNW,291,0.0,0.0,95,0.00,,,0.27,,2013-03-06 01:32:00,
2013-03-05 20:42:00,33.0,32.0,29.70,WNW,291,0.0,0.0,95,0.00,,,0.27,,2013-03-06 01:42:00,
2013-03-05 20:52:00,33.0,32.0,29.71,WNW,291,0.0,0.0,95,0.00,,,0.27,,2013-03-06 01:52:00,
2013-03-05 21:01:00,33.0,32.0,29.71,WNW,282,0.0,0.0,95,0.01,,,0.28,,2013-03-06 02:01:00,
2013-03-05 21:11:00,33.0,32.0,29.71,WNW,282,0.0,0.0,95,0.01,,,0.28,,2013-03-06 02:11:00,
2013-03-05 21:22:00,33.0,32.0,29.71,West,267,0.0,0.0,95,0.01,,,0.28,,2013-03-06 02:22:00,
2013-03-05 21:32:00,33.0,32.0,29.71,West,280,0.0,5.0,95,0.01,,,0.28,,2013-03-06 02:32:00,
2013-03-05 21:42:00,33.0,32.0,29.71,West,280,0.0,5.0,95,0.01,,,0.28,,2013-03-06 02:42:00,
2013-03-05 21:52:00,32.0,31.0,29.71,WSW,238,1.0,5.0,95,0.01,,,0.28,,2013-03-06 02:52:00,
2013-03-05 22:02:00,32.0,31.0,29.72,NW,312,1.0,6.0,95,0.01,,,0.28,,2013-03-06 03:02:00,
2013-03-05 22:11:00,32.0,31.0,29.72,NW,312,1.0,6.0,95,0.01,,,0.28,,2013-03-06 03:11:00,
2013-03-05 22:22:00,32.0,31.0,29.72,WNW,289,1.0,0.0,95,0.00,,,0.28,,2013-03-06 03:22:00,
2013-03-05 22:32:00,32.0,31.0,29.72,NW,304,3.0,5.0,95,0.00,,,0.28,,2013-03-06 03:32:00,
2013-03-05 22:42:00,32.0,31.0,29.72,NW,304,3.0,5.0,95,0.00,,,0.28,,2013-03-06 03:42:00,
2013-03-05 22:52:00,31.0,30.0,29.72,West,273,1.0,5.0,95,0.00,,,0.28,,2013-03-06 03:52:00,
2013-03-05 23:02:00,31.0,30.0,29.72,NNW,335,0.0,5.0,95,0.00,,,0.28,,2013-03-06 04:02:00,
2013-03-05 23:11:00,31.0,30.0,29.72,NNW,335,0.0,5.0,95,0.00,,,0.28,,2013-03-06 04:11:00,
2013-03-05 23:22:00,31.0,30.0,29.73,WSW,247,0.0,3.0,95,0.00,,,0.28,,2013-03-06 04:22:00,
2013-03-05 23:32:00,31.0,30.0,29.73,West,269,3.0,6.0,95,0.00,,,0.28,,2013-03-06 04:32:00,
2013-03-05 23:42:00,31.0,30.0,29.73,West,269,3.0,6.0,95,0.00,,,0.28,,2013-03-06 04:42:00,
2013-03-05 23:52:00,31.0,30.0,29.74,West,280,1.0,3.0,95,0.00,,,0.28,,2013-03-06 04:52:00,